GW6731 Weather Reports


Display with metric or nautical units.
time (UTC)temp
F
wind
direction
speed
MPH
gust
MPH
rain 1hr
in
rain 24hr
in
rain mn
in
humidity
%
barometer
mb
20260507171542 63 290 9.0 18.0 0.00 0.00 0.00 40 1012.5
20260507170037 62 32 8.0 18.0 0.00 0.00 0.00 42 1012.7
20260507164546 61 341 5.0 15.0 0.00 0.00 0.00 42 1012.7
20260507163032 61 320 7.0 15.0 0.00 0.00 0.00 43 1012.6
20260507161540 60 341 8.0 14.0 0.00 0.00 0.00 43 1012.5
20260507160038 60 292 8.0 15.0 0.00 0.00 0.00 43 1012.5
20260507154535 60 319 7.0 15.0 0.00 0.00 0.00 45 1012.4
20260507153030 59 32 5.0 10.0 0.00 0.00 0.00 45 1012.3
20260507151539 58 304 3.0 10.0 0.00 0.00 0.00 47 1012.3
20260507150030 54 0 1.0 4.0 0.00 0.00 0.00 53 1012.4
20260507144534 53 0 0.0 2.0 0.00 0.00 0.00 52 1012.2
20260507143031 52 257 0.0 7.0 0.00 0.00 0.00 53 1012.2
20260507141533 51 288 1.0 5.0 0.00 0.00 0.00 55 1012.2
20260507140031 50 325 4.0 10.0 0.00 0.00 0.00 54 1012.2
20260507134539 51 315 6.0 12.0 0.00 0.00 0.00 53 1012.1
20260507133030 52 352 7.0 12.0 0.00 0.00 0.00 50 1011.9
20260507131536 50 305 3.0 10.0 0.00 0.00 0.00 56 1011.8
20260507130029 49 329 4.0 10.0 0.00 0.00 0.00 57 1011.8
20260507124544 47 330 3.0 6.0 0.00 0.00 0.00 60 1011.6
20260507123031 44 323 4.0 8.0 0.00 0.00 0.00 66 1011.5
20260507121533 42 322 1.0 4.0 0.00 0.00 0.00 67 1011.5
20260507120032 42 350 2.0 4.0 0.00 0.00 0.00 70 1011.3
20260507114535 39 304 0.0 3.0 0.00 0.00 0.00 71 1011.3
20260507113033 40 342 0.0 2.0 0.00 0.00 0.00 69 1011.2
20260507111537 41 305 0.0 1.0 0.00 0.00 0.00 68 1011.0
20260507110046 43 338 0.0 3.0 0.00 0.00 0.00 64 1011.0
20260507104533 44 338 0.0 1.0 0.00 0.00 0.00 64 1010.9
20260507103033 45 0 0.0 1.0 0.00 0.00 0.00 64 1010.7
20260507101540 45 338 0.0 2.0 0.00 0.00 0.00 64 1010.4
20260507100037 44 9 0.0 1.0 0.00 0.00 0.00 64 1010.4
20260507094538 44 9 0.0 3.0 0.00 0.00 0.00 64 1010.3
20260507093030 45 325 1.0 3.0 0.00 0.00 0.00 62 1010.0
20260507091538 44 0 0.0 5.0 0.00 0.00 0.00 64 1010.0
20260507090039 45 44 1.0 4.0 0.00 0.00 0.00 60 1009.8
20260507084538 43 207 1.0 4.0 0.00 0.00 0.00 65 1009.8
20260507083037 41 9 2.0 4.0 0.00 0.00 0.00 65 1009.4
20260507081532 42 303 1.0 3.0 0.00 0.00 0.00 62 1008.9
20260507080036 43 87 1.0 4.0 0.00 0.00 0.00 61 1009.1
20260507074542 41 0 0.0 2.0 0.00 0.00 0.00 62 1009.1
20260507073032 45 340 1.0 3.0 0.00 0.00 0.00 56 1009.5
20260507071533 47 40 1.0 3.0 0.00 0.00 0.00 51 1009.1
20260507070036 50 53 5.0 16.0 0.00 0.00 0.00 54 1008.9
20260507064537 51 65 8.0 17.0 0.00 0.00 0.00 53 1008.6
20260507063035 51 93 12.0 20.0 0.00 0.00 0.00 52 1008.6
20260507061534 50 98 12.0 19.0 0.00 0.00 0.00 50 1008.3
20260507060039 51 57 14.0 23.0 0.00 0.00 0.00 44 1008.2
20260507054532 53 85 12.0 22.0 0.00 0.00 0.00 36 1008.4
20260507053032 55 71 17.0 24.0 0.00 0.00 0.00 33 1008.6
20260507051539 55 78 14.0 21.0 0.00 0.00 0.00 33 1008.5
20260507050041 55 90 12.0 19.0 0.00 0.00 0.00 34 1008.3
20260507044534 54 72 12.0 18.0 0.00 0.00 0.00 36 1008.3
20260507043032 50 98 0.0 2.0 0.00 0.00 0.00 58 1008.1
20260507041533 51 315 1.0 4.0 0.00 0.00 0.00 56 1008.0
20260507040034 50 16 2.0 4.0 0.00 0.00 0.00 56 1007.9
20260507034552 52 20 2.0 4.0 0.00 0.00 0.00 52 1007.9
20260507033033 52 355 1.0 3.0 0.00 0.00 0.00 51 1007.8
20260507031535 55 200 0.0 2.0 0.00 0.00 0.00 46 1008.0
20260507030036 55 0 0.0 0.0 0.00 0.00 0.00 44 1007.9
20260507024548 53 163 1.0 3.0 0.00 0.00 0.00 43 1008.3
20260507023031 53 321 0.0 3.0 0.00 0.00 0.00 45 1008.0
20260507021532 55 329 1.0 2.0 0.00 0.00 0.00 43 1007.7
20260507020035 56 327 1.0 3.0 0.00 0.00 0.00 43 1007.7
20260507014540 59 327 0.0 2.0 0.00 0.00 0.00 36 1007.6
20260507013034 62 309 1.0 4.0 0.00 0.00 0.00 29 1007.7
20260507011540 64 324 3.0 6.0 0.00 0.00 0.00 27 1007.8
20260507010032 63 247 0.0 9.0 0.00 0.00 0.00 26 1007.8
20260507004531 65 312 3.0 9.0 0.00 0.00 0.00 24 1008.0
20260507003034 66 290 5.0 12.0 0.00 0.00 0.00 24 1008.1
20260507001540 67 304 4.0 10.0 0.00 0.00 0.00 23 1008.2
20260507000033 68 327 7.0 15.0 0.00 0.00 0.00 24 1008.3
20260506234532 67 345 5.0 13.0 0.00 0.00 0.00 23 1008.3
20260506233033 66 325 6.0 13.0 0.00 0.00 0.00 24 1008.3
20260506231533 67 321 5.0 11.0 0.00 0.00 0.00 23 1008.5
20260506230042 67 307 7.0 14.0 0.00 0.00 0.00 23 1008.5
20260506224534 67 245 5.0 15.0 0.00 0.00 0.00 24 1008.6
20260506223032 68 299 3.0 8.0 0.00 0.00 0.00 25 1008.7
20260506221537 68 188 5.0 11.0 0.00 0.00 0.00 26 1009.0
20260506220040 67 198 4.0 10.0 0.00 0.00 0.00 24 1009.2
20260506214531 67 242 3.0 10.0 0.00 0.00 0.00 27 1009.3
20260506213032 66 283 3.0 10.0 0.00 0.00 0.00 27 1009.5
20260506211539 66 207 4.0 9.0 0.00 0.00 0.00 28 1009.7
20260506210031 66 313 3.0 9.0 0.00 0.00 0.00 26 1009.8
20260506204533 64 360 2.0 11.0 0.00 0.00 0.00 26 1010.0
20260506203032 63 220 5.0 10.0 0.00 0.00 0.00 27 1010.3
20260506201532 62 184 2.0 10.0 0.00 0.00 0.00 27 1010.6
20260506200032 62 147 2.0 10.0 0.00 0.00 0.00 27 1010.9
20260506194538 60 218 3.0 14.0 0.00 0.00 0.00 28 1011.2
20260506193034 60 221 4.0 9.0 0.00 0.00 0.00 29 1011.2
20260506191534 58 147 2.0 11.0 0.00 0.00 0.00 30 1011.5
20260506190038 57 226 6.0 15.0 0.00 0.00 0.00 30 1011.7
20260506184534 56 269 2.0 10.0 0.00 0.00 0.00 29 1012.0
20260506183034 55 208 3.0 8.0 0.00 0.00 0.00 30 1012.2
20260506181536 54 190 4.0 10.0 0.00 0.00 0.00 26 1012.4
20260506180033 53 227 2.0 10.0 0.00 0.00 0.00 25 1012.7
20260506174533 53 215 3.0 8.0 0.00 0.00 0.00 27 1012.8
20260506173032 53 255 1.0 8.0 0.00 0.00 0.00 31 1013.0